Simultaneous Nadir Overpasses (SNOs) Predictions

Prediction of SNOs between FY3D and METOP-C Satellite Orbit:

Table of predicted SNOs for the next 14.0 days since TLE Epoch: 12/25/2021
Index Date (FY3D) Time (FY3D) Lat,Lon (FY3D) SZA (FY3D ) Date (METOP-C) Time (METOP-C) Lat,Lon (METOP-C) SZA (METOP-C ) Distance(km) Time Diff (sec)
1 01/07/2022 23:23:31 74.29,-178.03 96.65 01/07/2022 23:24:39 74.21,-175.69 96.48 71.12 68
2 01/08/2022 00:14:13 -74.10, -10.25 83.57 01/08/2022 00:15:23 -74.08, -8.70 83.65 47.34 70
3 01/08/2022 01:04:55 73.92, 157.51 96.24 01/08/2022 01:06:08 73.85, 158.07 96.14 18.92 73
4 01/08/2022 01:55:38 -73.79, -34.85 83.92 01/08/2022 01:56:51 -73.76, -34.81 83.95 2.67 73
5 01/08/2022 02:46:23 73.75, 132.55 96.04 01/08/2022 02:47:31 73.78, 132.56 96.06 3.33 68



Historial Predications of SNOs between FY3D and METOP-C
